Regional Weather Roundup
Issued by NWS

Home | Current Version | Previous Version | Text Only | Print | Product List | Glossary On
Versions: 1 2 3 4 5 6 7 8 9 10 11 12 13 14 15 16 17 18 19 20 21 22 23 24 25 26 27
000
ASUS46 KPQR 220510
RWROR

OREGON REGIONAL WEATHER ROUNDUP
NATIONAL WEATHER SERVICE PORTLAND OR
900 PM PST TUE NOV 21 2017

NOTE: "FAIR" INDICATES FEW OR NO CLOUDS BELOW 12,000 FEET WITH
NO SIGNIFICANT WEATHER AND/OR OBSTRUCTIONS TO VISIBILITY.

ORZ001>013-220600-
NORTHWEST OREGON


CITY           SKY/WX    TMP DP  RH WIND       PRES   REMARKS
ASTORIA        LGT RAIN  61  58  90 S21G35    29.90S
NEWPORT        LGT RAIN  61  59  94 S8G21     30.00R
PORTLAND       LGT RAIN  50  50 100 SE17      30.02R
VANCOUVER WA   CLOUDY    50  50 100 SE8       30.01R
SCAPPOOSE      CLOUDY    51  50  96 CALM      30.00F
HILLSBORO      CLOUDY    55  53  93 E5        29.99R
AURORA         LGT RAIN  56  56 100 CALM      30.02R
MCMINNVILLE    LGT RAIN  55  55 100 E3        30.01R
SALEM          LGT RAIN  62  57  83 S15       29.99R
CORVALLIS      LGT RAIN  59  57  93 SE8       30.01S
EUGENE         CLOUDY    57  57 100 CALM      30.01F
$$

ORZ021-028-220600-
SOUTHWEST OREGON


CITY           SKY/WX    TMP DP  RH WIND       PRES   REMARKS
NORTH BEND     CLOUDY    60  58  92 E3        29.97F
BROOKINGS      CLOUDY    61  57  87 VRB6      30.01F
ROSEBURG       LGT RAIN  63  56  78 SW3       30.01F
SEXTON SUMMIT  CLOUDY    55  44  66 SE18      30.11S
GRANTS PASS    CLOUDY    55  54  94 CALM      30.10S
MEDFORD        CLOUDY    57  56  96 CALM      30.07F
$$

ORZ014>016-041-220600-
COLUMBIA GORGE


CITY           SKY/WX    TMP DP  RH WIND       PRES   REMARKS
TROUTDALE      LGT RAIN  50  46  86 E21G30    30.02F
HOOD RIVER     LGT RAIN  43  41  93 CALM      30.11S
THE DALLES     CLOUDY    46  45  96 CALM      30.12R
$$

ORZ029>031-041-044-049-050-061>064-502-503-505>511-220600-
EASTERN OREGON


CITY           SKY/WX    TMP DP  RH WIND       PRES   REMARKS
MADRAS         MOCLDY    63  63 100 S13G22    30.09R
REDMOND        CLOUDY    57  47  69 SE6       30.12R
BEND           CLOUDY    57  48  72 S7        30.14R
PRINEVILLE     CLOUDY    55  46  71 CALM      30.14S
KLAMATH FALLS  CLOUDY    55  46  71 SE13      30.21R
LAKEVIEW       CLOUDY    52  43  71 S10       30.28R
HERMISTON      CLOUDY    43  42  97 S3        30.10R
PENDLETON      FOG       40  40 100 N3        30.07R VSB 1/4
JOHN DAY       CLOUDY    61  46  57 S18G24    30.19S
MEACHAM        LGT RAIN  48  47  96 CALM      30.15S
LA GRANDE      LGT RAIN  53  48  83 S16       30.19R
BAKER CITY     CLOUDY    51  47  86 E13       30.22S
BURNS          LGT RAIN  45  44  97 CALM      30.25R
ROME             N/A     54  47  77 NE3       30.26R
ONTARIO        LGT RAIN  47  46  97 CALM      30.28R FOG
$$




USA.gov is the U.S. government's official web portal to all federal, state and local government web resources and services.